Volver al catálogo

STARLINK-3210

ActivoComunicacionesVLEO
NORAD 49755·PAYLOAD·🇺🇸 United States

Lanzado Dec 2, 2021 desde Cape Canaveral Space Force Station

Loading…

Próximos Pases (próximas 24 horas)

TLE

ActualizadoSource: CelesTrak SupGP

Época: Sep 14, 2026, 13:09 UTC

1 49755C 21115AH  26257.54840278 -.00023596  00000+0 -69734-3 0  2575
2 49755  53.1600   9.6263 0001505  70.6817  26.3903 15.34393015    11

Sigue STARLINK-3210 en tiempo real con AllMySat

Download on the App Store